• In Hungary
  • List of Countries
  • For 7 days
  • Water Temperature
  • Satellite Maps
  • Weather Map
  • News
  • Weather Widgets
  • user-avatar
    Login

    Hourly Weather Hotynec

    Today, 24 September, Monday

    Time Temperature Precipitation Wind Pressure Humidity
    00:00 +8°C° 0 mm 3 mps 738 mmHg 86%
    01:00 +7°C° 0 mm 3 mps 738 mmHg 86%
    02:00 +7°C° 0 mm 3 mps 738 mmHg 86%
    03:00 +7°C° 0 mm 3 mps 738 mmHg 83%
    04:00 +8°C° 0 mm 3 mps 738 mmHg 81%
    05:00 +8°C° 0 mm 3 mps 737 mmHg 78%
    06:00 +7°C° 0.1 mm 4 mps 737 mmHg 78%
    07:00 +8°C° 0.1 mm 4 mps 737 mmHg 78%
    08:00 +8°C° 0.1 mm 5 mps 737 mmHg 77%
    09:00 +9°C° 0.2 mm 6 mps 736 mmHg 76%
    10:00 +9°C° 0.2 mm 7 mps 735 mmHg 75%
    11:00 +10°C° 0.2 mm 8 mps 734 mmHg 75%
    12:00 +8°C° 1 mm 9 mps 733 mmHg 78%
    13:00 +8°C° 1 mm 9 mps 732 mmHg 81%
    14:00 +8°C° 1 mm 9 mps 731 mmHg 84%
    15:00 +8°C° 0.9 mm 9 mps 730 mmHg 85%
    16:00 +10°C° 0.9 mm 9 mps 729 mmHg 87%
    17:00 +10°C° 0.9 mm 9 mps 728 mmHg 88%
    18:00 +10°C° 0.2 mm 8 mps 728 mmHg 88%
    19:00 +9°C° 0.2 mm 8 mps 729 mmHg 87%
    20:00 +8°C° 0.2 mm 7 mps 729 mmHg 86%
    21:00 +8°C° 0 mm 7 mps 729 mmHg 86%
    22:00 +8°C° 0 mm 6 mps 729 mmHg 85%
    23:00 +7°C° 0 mm 6 mps 730 mmHg 85%

    Tomorrow, 25 September, Tuesday

    Time Temperature Precipitation Wind Pressure Humidity
    00:00 +7°C° 0 mm 6 mps 730 mmHg 85%
    01:00 +7°C° 0 mm 6 mps 731 mmHg 85%
    02:00 +5°C° 0 mm 6 mps 731 mmHg 85%
    03:00 +5°C° 0 mm 6 mps 731 mmHg 86%
    04:00 +5°C° 0 mm 6 mps 731 mmHg 87%
    05:00 +5°C° 0 mm 6 mps 732 mmHg 88%
    06:00 +5°C° 0.1 mm 6 mps 732 mmHg 87%
    07:00 +5°C° 0.1 mm 6 mps 733 mmHg 85%
    08:00 +5°C° 0.1 mm 6 mps 733 mmHg 84%
    09:00 +7°C° 0.1 mm 6 mps 734 mmHg 81%
    10:00 +7°C° 0.1 mm 6 mps 734 mmHg 79%
    11:00 +7°C° 0.1 mm 6 mps 735 mmHg 77%
    12:00 +7°C° 0 mm 6 mps 736 mmHg 76%
    13:00 +7°C° 0 mm 6 mps 736 mmHg 75%
    14:00 +7°C° 0 mm 6 mps 737 mmHg 73%
    15:00 +7°C° 0 mm 6 mps 737 mmHg 74%
    16:00 +6°C° 0 mm 5 mps 738 mmHg 75%
    17:00 +6°C° 0 mm 5 mps 738 mmHg 75%
    18:00 +6°C° 0 mm 5 mps 739 mmHg 75%
    19:00 +6°C° 0 mm 4 mps 740 mmHg 74%
    20:00 +6°C° 0 mm 4 mps 741 mmHg 74%
    21:00 +5°C° 0 mm 4 mps 741 mmHg 76%
    22:00 +5°C° 0 mm 4 mps 741 mmHg 78%
    23:00 +4°C° 0 mm 4 mps 742 mmHg 81%

    Day after tomorrow, 26 September, Wednesday

    Time Temperature Precipitation Wind Pressure Humidity
    00:00 +3°C° 0 mm 4 mps 742 mmHg 81%
    01:00 +3°C° 0 mm 4 mps 743 mmHg 82%
    02:00 +1°C° 0 mm 4 mps 744 mmHg 83%
    03:00 +1°C° 0 mm 4 mps 744 mmHg 83%
    04:00 +1°C° 0 mm 3 mps 745 mmHg 84%
    05:00 +1°C° 0 mm 3 mps 745 mmHg 85%
    06:00 +1°C° 0 mm 4 mps 746 mmHg 81%
    07:00 +3°C° 0 mm 4 mps 747 mmHg 76%
    08:00 +3°C° 0 mm 4 mps 747 mmHg 72%
    09:00 +5°C° 0 mm 4 mps 748 mmHg 66%
    10:00 +6°C° 0 mm 4 mps 748 mmHg 59%
    11:00 +7°C° 0 mm 4 mps 748 mmHg 53%
    12:00 +8°C° 0 mm 4 mps 748 mmHg 50%
    13:00 +8°C° 0 mm 4 mps 748 mmHg 48%
    14:00 +8°C° 0 mm 4 mps 748 mmHg 45%
    15:00 +9°C° 0 mm 3 mps 748 mmHg 49%
    16:00 +8°C° 0 mm 3 mps 748 mmHg 54%
    17:00 +7°C° 0 mm 3 mps 747 mmHg 58%
    18:00 +5°C° 0 mm 3 mps 747 mmHg 62%
    19:00 +5°C° 0 mm 3 mps 747 mmHg 65%
    20:00 +4°C° 0 mm 4 mps 747 mmHg 69%
    21:00 +4°C° 0 mm 4 mps 747 mmHg 68%
    22:00 +5°C° 0 mm 5 mps 746 mmHg 68%
    23:00 +5°C° 0 mm 5 mps 746 mmHg 67%

    27 September, Thursday

    Time Temperature Precipitation Wind Pressure Humidity
    00:00 +4°C° 0 mm 6 mps 745 mmHg 67%
    01:00 +4°C° 0 mm 6 mps 744 mmHg 66%
    02:00 +4°C° 0 mm 7 mps 743 mmHg 65%
    03:00 +4°C° 0.3 mm 7 mps 742 mmHg 68%
    04:00 +4°C° 0.3 mm 8 mps 742 mmHg 70%
    05:00 +4°C° 0.3 mm 8 mps 741 mmHg 73%
    06:00 +4°C° 0.6 mm 8 mps 740 mmHg 76%
    07:00 +3°C° 0.6 mm 9 mps 740 mmHg 78%
    08:00 +3°C° 0.6 mm 9 mps 740 mmHg 81%
    09:00 +5°C° 0.2 mm 8 mps 739 mmHg 81%
    10:00 +5°C° 0.2 mm 8 mps 739 mmHg 82%
    11:00 +6°C° 0.2 mm 8 mps 739 mmHg 83%
    12:00 +6°C° 0.2 mm 7 mps 739 mmHg 84%
    13:00 +6°C° 0.2 mm 7 mps 739 mmHg 86%
    14:00 +7°C° 0.2 mm 6 mps 739 mmHg 87%
    15:00 +7°C° 0.2 mm 6 mps 739 mmHg 88%
    16:00 +7°C° 0.2 mm 6 mps 739 mmHg 90%
    17:00 +7°C° 0.2 mm 5 mps 739 mmHg 91%
    18:00 +8°C° 0.1 mm 5 mps 739 mmHg 91%
    19:00 +8°C° 0.1 mm 5 mps 739 mmHg 92%
    20:00 +8°C° 0.1 mm 5 mps 739 mmHg 92%
    21:00 +8°C° 0.1 mm 5 mps 738 mmHg 92%
    22:00 +9°C° 0.1 mm 5 mps 738 mmHg 93%
    23:00 +9°C° 0.1 mm 6 mps 738 mmHg 93%

    28 September, Friday

    Time Temperature Precipitation Wind Pressure Humidity
    00:00 +10°C° 0.1 mm 6 mps 738 mmHg 93%
    01:00 +10°C° 0.1 mm 6 mps 737 mmHg 92%
    02:00 +11°C° 0.1 mm 7 mps 737 mmHg 92%
    03:00 +11°C° 0 mm 7 mps 737 mmHg 91%
    04:00 +11°C° 0 mm 7 mps 736 mmHg 91%
    05:00 +11°C° 0 mm 7 mps 736 mmHg 90%
    06:00 +11°C° 0 mm 8 mps 736 mmHg 89%
    07:00 +11°C° 0 mm 8 mps 735 mmHg 88%
    08:00 +11°C° 0 mm 8 mps 735 mmHg 87%
    09:00 +12°C° 0.1 mm 8 mps 735 mmHg 86%
    10:00 +12°C° 0.1 mm 8 mps 735 mmHg 85%
    11:00 +12°C° 0.1 mm 8 mps 735 mmHg 83%
    12:00 +12°C° 0.3 mm 8 mps 735 mmHg 84%
    13:00 +12°C° 0.3 mm 7 mps 736 mmHg 84%
    14:00 +11°C° 0.3 mm 6 mps 736 mmHg 84%
    15:00 +12°C° 0 mm 5 mps 737 mmHg 83%
    16:00 +11°C° 0 mm 4 mps 737 mmHg 83%
    17:00 +10°C° 0 mm 3 mps 738 mmHg 82%
    18:00 +9°C° 0 mm 3 mps 739 mmHg 86%
    19:00 +8°C° 0 mm 3 mps 739 mmHg 89%
    20:00 +8°C° 0 mm 3 mps 740 mmHg 92%
    21:00 +7°C° 0 mm 3 mps 740 mmHg 92%
    22:00 +7°C° 0 mm 2 mps 741 mmHg 93%
    23:00 +6°C° 0 mm 2 mps 741 mmHg 93%

    29 September, Saturday

    Time Temperature Precipitation Wind Pressure Humidity
    00:00 +6°C° 0 mm 2 mps 741 mmHg 93%
    01:00 +5°C° 0 mm 2 mps 742 mmHg 93%
    02:00 +5°C° 0 mm 2 mps 742 mmHg 93%
    03:00 +5°C° 0 mm 2 mps 742 mmHg 93%
    04:00 +5°C° 0 mm 1 mps 743 mmHg 93%
    05:00 +5°C° 0 mm 1 mps 743 mmHg 93%
    06:00 +6°C° 0 mm 1 mps 743 mmHg 88%
    07:00 +7°C° 0 mm 1 mps 743 mmHg 83%
    08:00 +8°C° 0 mm 1 mps 744 mmHg 78%
    09:00 +9°C° 0 mm 1 mps 744 mmHg 70%
    10:00 +9°C° 0 mm 2 mps 744 mmHg 62%
    11:00 +10°C° 0 mm 2 mps 745 mmHg 53%
    12:00 +10°C° 0 mm 2 mps 745 mmHg 51%
    13:00 +10°C° 0 mm 2 mps 745 mmHg 49%
    14:00 +10°C° 0 mm 2 mps 745 mmHg 47%
    15:00 +10°C° 0 mm 2 mps 745 mmHg 51%
    16:00 +9°C° 0 mm 2 mps 745 mmHg 55%
    17:00 +9°C° 0 mm 1 mps 745 mmHg 59%
    18:00 +8°C° 0 mm 1 mps 746 mmHg 62%
    19:00 +7°C° 0 mm 1 mps 746 mmHg 64%
    20:00 +5°C° 0 mm 2 mps 747 mmHg 67%
    21:00 +5°C° 0 mm 2 mps 747 mmHg 69%
    22:00 +4°C° 0 mm 2 mps 747 mmHg 72%
    23:00 +4°C° 0 mm 2 mps 748 mmHg 74%
    Show more

    3.3.7123123